TIME,DELAY(SENSOR),PRES,OXYGEN,RAWTEMP,T(OPTODE),TCPHASE,FLUOR,BETA(BETA700),BETA(BETA412),BETA(BETA440),CDOM,C(CSC),ED(ED411.90),ED(ED443.80),ED(ED489.40),ED(ED554.70),LU(LU412.20),LU(LU443.80),LU(LU489.40),LU(LU555.00),COMP,TILTX,TILTY,CHECK
1352671360,5806,850.4099731445312000,166.5540008544922000,401.1575927734375000,10.5674104690551760,38.4967002868652340,52,102,62,61,67,13603,2146961718,2147516306,2147284589,2147499437,2147089545,2146936301,2147696987,2147124333,1167,-1,8,46787
1352674956,5802,970.0999755859375000,186.1531066894531200,481.8960876464844000,8.0900821685791020,38.4707908630371100,52,101,61,60,69,13598,2146964032,2147517613,2147292196,2147514038,2147092306,2146929142,2147710418,2147121846,1558,-1,8,21881
1352678556,5805,986.3599853515625000,194.8851013183593800,491.9081115722656000,7.7803211212158200,38.0780982971191400,53,100,62,60,68,13594,2146961426,2147516096,2147295433,2147518884,2147089197,2146928576,2147713782,2147121545,3553,0,8,36209
1352682156,5808,987.9500122070312000,196.8648071289062500,493.4703063964844000,7.7319312095642090,37.9805107116699200,52,101,62,59,69,13595,2146961947,2147516224,2147291419,2147517366,2147092150,2146926701,2147715593,2147120722,927,-1,8,46915
1352685756,5804,990.2500000000000000,198.1316070556640600,495.1300964355469000,7.6804981231689450,37.9301681518554700,52,100,62,60,70,13591,2146964699,2147515346,2147293888,2147517833,2147089764,2146927725,2147721563,2147122889,3258,-1,8,37601
1352689356,5805,997.7000122070312000,199.7841949462890600,496.6069030761719000,7.6347231864929200,37.8534088134765600,53,101,61,60,70,13594,2146964260,2147517568,2147293348,2147518930,2147092653,2146928539,2147713883,2147121426,3106,-1,8,27787
1352692956,5807,999.1199951171875000,199.8195037841797000,496.9594116210937500,7.6237950325012210,37.8572616577148440,53,99,62,60,70,13578,2146965110,2147517019,2147295232,2147520530,2147090075,2146926262,2147712859,2147122212,3300,-1,8,4006
1352696556,5807,999.7700195312500000,198.3607940673828000,497.9541015625000000,7.5929517745971680,37.9649009704589840,52,101,62,59,70,13584,2146963318,2147516315,2147293056,2147518253,2147095625,2146930880,2147719350,2147122816,262,-1,8,8914
1352700156,5806,998.7199707031250000,198.5007934570312500,498.7980041503906000,7.5667791366577150,37.9711799621582000,52,101,62,60,68,13585,2146964598,2147516598,2147297106,2147516077,2147092324,2146929563,2147714486,2147118893,3220,-1,8,63651
1352703756,5805,1003.2500000000000000,199.8052978515625000,499.0044860839844000,7.5603761672973630,37.8933906555175800,52,100,61,60,69,13575,2146961481,2147516352,2147294601,2147515090,2147091181,2146924589,2147717504,2147122678,3363,-1,8,38721
1352707356,5807,997.9199829101562000,201.2568969726562500,500.0721130371094000,7.5272560119628910,37.8227195739746100,52,100,62,61,68,13507,2146965376,2147516013,2147294829,2147520356,2147087707,2146928850,2147715446,2147123008,3248,-1,8,2053
1352710956,5808,993.7399902343750000,202.9205017089843800,502.2643127441406000,7.4592289924621580,37.7596397399902340,51,100,61,60,68,13511,2146961938,2147516635,2147295963,2147518189,2147093174,2146929472,2147713993,2147119213,548,0,8,51983
1352714556,5804,988.8699951171875000,203.0919036865234400,503.6908874511719000,7.4149408340454100,37.7741508483886700,52,100,62,61,68,13504,2146961938,2147514441,2147297106,2147519707,2147093522,2146926445,2147718802,2147119204,2938,-1,8,51091
1352718156,5807,989.3800048828125000,203.3433074951172000,505.0740966796875000,7.3719887733459470,37.7828712463378900,51,100,62,60,68,13507,2146964059,2147517330,2147294171,2147518052,2147091931,2146923922,2147721188,2147122541,520,-1,8,57078
1352721756,5805,994.2800292968750000,204.4945983886718800,504.5440063476562500,7.3884530067443850,37.7043418884277340,52,101,63,61,68,13507,2146963995,2147514989,2147295341,2147520155,2147091346,2146922660,2147714139,2147122468,3529,-1,8,49008
1352725356,5806,997.9899902343750000,203.5695037841797000,503.1235046386719000,7.4325571060180660,37.7347908020019500,53,107,61,59,69,13503,2146962304,2147518482,2147296109,2147518921,2147089874,2146926656,2147716644,2147119296,3498,-1,8,4123
1352728956,5805,999.9000244140625000,202.3603057861328000,502.7919921875000000,7.4428482055664060,37.8029594421386700,52,102,62,60,69,13503,2146960905,2147517156,2147296338,2147518838,2147087323,2146920475,2147715529,2147122368,3376,-1,8,35980
1352732556,5806,999.8200073242188000,201.6329956054687500,502.0126037597656000,7.4670410156250000,37.8338508605957000,53,102,62,61,68,13504,2146963300,2147517686,2147294363,2147519396,2147090889,2146925321,2147713206,2147123638,420,-1,8,7051
1352736156,5805,1005.7299804687500000,202.2626037597656200,500.4684143066406000,7.5149631500244140,37.7678413391113300,51,102,61,60,70,13501,2146964352,2147513691,2147292288,2147517997,2147092534,2146924571,2147716160,2147122084,1031,-1,8,28479
1352739756,5807,1004.7999877929688000,201.2216033935547000,501.5150146484375000,7.4824872016906740,37.8501815795898440,52,102,63,60,68,13503,2146961645,2147514806,2147293293,2147519561,2147090038,2146928073,2147713170,2147120009,183,0,8,38387
1352743356,5805,1006.7000122070312000,200.7657928466797000,500.7493896484375000,7.5062417984008790,37.8646507263183600,52,100,61,60,68,13503,2146966061,2147517302,2147297636,2147516342,2147093586,2146923830,2147716361,2147119616,3520,-1,8,31847
1352746956,5806,1008.0700073242188000,200.3184967041015600,499.4125061035156000,7.5477199554443360,37.8687515258789060,52,100,61,60,68,13502,2146963666,2147513737,2147295323,2147517549,2147093101,2146925558,2147712393,2147122596,270,-1,8,31473
1352750556,5808,1006.8300170898438000,200.1114044189453000,499.7601013183594000,7.5369348526000980,37.8874092102050800,51,99,62,61,68,13500,2146964205,2147517412,2147295780,2147519945,2147090806,2146928009,2147714724,2147123200,416,-1,8,3304
1352754156,5806,1005.9199829101562000,199.3863067626953000,501.6749877929687500,7.4775199890136720,37.9662208557128900,52,102,61,61,68,13500,2146965248,2147516891,2147295945,2147519954,2147090642,2146921929,2147716726,2147124644,593,-1,8,12263
1352757756,5807,1006.8499755859375000,201.6419067382812500,501.1886901855469000,7.4926118850708010,37.8187294006347660,53,103,62,60,69,13499,2146962075,2147514834,2147295396,2147520320,2147092013,2146930432,2147715072,2147120960,295,-1,8,27131
1352761356,5805,1004.2800292968750000,202.5865936279297000,501.8541870117187500,7.4719581604003910,37.7724800109863300,52,100,61,60,68,13494,2146963465,2147515849,2147293229,2147518793,2147090660,2146920146,2147716269,2147119012,3587,0,8,26181
1352764956,5807,1004.6599731445312000,201.3016967773437500,502.9130859375000000,7.4390888214111330,37.8695411682128900,52,100,62,60,69,13464,2146964333,2147517266,2147292690,2147517174,2147090569,2146919634,2147717833,2147120740,393,-1,8,34097
1352768556,5808,1006.3099975585938000,201.7967987060547000,502.5646972656250000,7.4499030113220215,37.8333587646484400,52,99,63,61,68,13494,2146966464,2147516653,2147297801,2147521133,2147093284,2146918409,2147718381,2147123547,210,-1,8,56461
1352772156,5808,1001.0599975585938000,201.7626953125000000,503.1765136718750000,7.4309139251708980,37.8455581665039060,52,101,62,60,69,13492,2146962934,2147516379,2147297462,2147520512,2147093604,2146923410,2147717357,2147121307,292,-1,8,10233
1352775756,5807,1001.6500244140625000,204.2651977539062500,504.4677124023437500,7.3908200263977050,37.7163200378418000,53,104,61,60,68,13496,2146962834,2147516516,2147295753,2147519561,2147091282,2146919808,2147716662,2147123995,3253,-1,8,23464
1352779356,5809,1002.2399902343750000,203.3571014404297000,503.9833984375000000,7.4058589935302730,37.7634391784668000,52,101,62,61,69,13496,2146965248,2147515931,2147297033,2147519451,2147089947,2146921874,2147718372,2147118784,366,-1,8,4075
1352782956,5807,1007.4400024414062000,203.2075042724609400,502.8624877929687500,7.4406590461730960,37.7523002624511700,52,102,62,60,70,13494,2146959104,2147517769,2147293851,2147519469,2147092516,2146919049,2147718756,2147119049,2926,-1,8,49195
1352786556,5806,1006.7199707031250000,203.3675994873047000,503.0433959960937500,7.4350438117980960,37.7457695007324200,52,99,60,60,68,13495,2146964096,2147518336,2147295469,2147517833,2147091081,2146923428,2147716096,2147119661,3210,-1,8,17529
1352790156,5804,1006.7399902343750000,203.2462005615234400,502.9478149414062500,7.4380121231079100,37.7514801025390600,51,103,62,60,69,13486,2146960420,2147516973,2147295323,2147518793,2147092077,2146920265,2147719168,2147121700,3371,-1,8,20556
1352793756,5806,1007.9000244140625000,202.4217071533203000,502.5382995605469000,7.4507250785827640,37.7946395874023440,52,101,61,61,69,13484,2146961819,2147514084,2147297206,2147516516,2147092525,2146924873,2147715922,2147121115,3071,-1,8,11490
1352797356,5807,1006.8400268554688000,203.5021972656250000,502.8288879394531000,7.4417037963867190,37.7341003417968750,52,101,62,59,68,13481,2146964032,2147519789,2147293531,2147520969,2147095021,2146922560,2147719058,2147122852,3388,-1,8,40563
1352800956,5806,1012.7399902343750000,202.8412017822265600,502.3446960449219000,7.4567317962646480,37.7657585144043000,53,101,62,60,68,13482,2146966400,2147516452,2147295094,2147516745,2147091876,2146923492,2147712713,2147123044,3085,-1,8,54376
1352804556,5804,1007.8800048828125000,200.7745056152343800,502.1839904785156000,7.4617199897766110,37.8895606994628900,52,101,63,60,69,13483,2146961618,2147515044,2147295241,2147518720,2147089883,2146925321,2147718217,2147121746,3393,-1,8,64909
1352808156,5806,1013.0399780273438000,202.2503051757812500,501.9465942382812500,7.4690890312194820,37.7952003479003900,52,105,61,60,68,13482,2146963556,2147514925,2147296987,2147516608,2147092260,2146922797,2147722605,2147120877,164,-1,8,12251
1352811756,5806,1008.7399902343750000,200.7451019287109400,502.5484008789062500,7.4504108428955080,37.8973388671875000,53,99,62,60,69,13479,2146964105,2147517760,2147293769,2147518509,2147093348,2146926436,2147712996,2147119753,3297,-1,8,43315
1352815256,5805,1005.5000000000000000,203.0715026855468800,502.9060058593750000,7.4393091201782230,37.7611885070800800,52,102,62,60,68,13540,2146966162,2147514962,2147295780,2147517138,2147096146,2146920320,2147716333,2147123602,3318,-1,8,61310
